KG6SIB Weather Reports


Display with metric or nautical units.
time (UTC)temp
F
wind
direction
speed
MPH
gust
MPH
rain 1hr
in
rain 24hr
in
rain mn
in
humidity
%
barometer
mb
20180618033220 52 206 2.0 3.0 0.00 0.00 0.00 83 1013.7
20180618032720 52 233 1.0 3.0 0.00 0.00 0.00 83 1013.7
20180618032220 52 253 2.0 4.0 0.00 0.00 0.00 83 1013.6
20180618031720 52 245 0.0 4.0 0.00 0.00 0.00 83 1013.6
20180618031220 52 287 2.0 5.0 0.00 0.00 0.00 82 1013.6
20180618030720 52 242 1.0 5.0 0.00 0.00 0.00 82 1013.6
20180618030219 52 236 3.0 7.0 0.00 0.00 0.00 82 1013.6
20180618025720 53 218 4.0 7.0 0.00 0.00 0.00 81 1013.6
20180618025220 53 192 2.0 6.0 0.00 0.00 0.00 81 1013.6
20180618024719 53 221 3.0 7.0 0.00 0.00 0.00 80 1013.6
20180618024219 53 243 3.0 7.0 0.00 0.00 0.00 80 1013.5
20180618023719 53 252 2.0 7.0 0.00 0.00 0.00 80 1013.6
20180618023220 54 221 3.0 7.0 0.00 0.00 0.00 79 1013.6
20180618022718 54 199 4.0 7.0 0.00 0.00 0.00 79 1013.5
20180618022218 54 256 3.0 7.0 0.00 0.00 0.00 78 1013.5
20180618021719 54 239 5.0 9.0 0.00 0.00 0.00 78 1013.5
20180618021218 55 229 4.0 11.0 0.00 0.00 0.00 77 1013.6
20180618020718 55 218 8.0 11.0 0.00 0.00 0.00 77 1013.6
20180618020219 55 285 3.0 8.0 0.00 0.00 0.00 76 1013.6
20180618015718 55 236 4.0 8.0 0.00 0.00 0.00 76 1013.1
20180618015217 55 233 4.0 7.0 0.00 0.00 0.00 76 1013.1
20180618014717 55 247 4.0 9.0 0.00 0.00 0.00 75 1013.1
20180618014217 56 262 1.0 10.0 0.00 0.00 0.00 74 1013.3
20180618013718 56 249 4.0 10.0 0.00 0.00 0.00 73 1013.3
20180618013219 57 293 5.0 9.0 0.00 0.00 0.00 72 1013.3
20180618012717 57 212 7.0 11.0 0.00 0.00 0.00 73 1013.3
20180618012216 57 285 6.0 14.0 0.00 0.00 0.00 72 1013.2
20180618011717 57 195 3.0 14.0 0.00 0.00 0.00 71 1013.2
20180618011217 58 210 5.0 10.0 0.00 0.00 0.00 71 1013.5
20180618010716 58 214 3.0 13.0 0.00 0.00 0.00 70 1013.5
20180618010216 58 203 5.0 13.0 0.00 0.00 0.00 70 1013.6
20180618005717 57 231 5.0 13.0 0.00 0.00 0.00 70 1013.2
20180618005215 58 259 6.0 13.0 0.00 0.00 0.00 69 1013.4
20180618004717 59 261 5.0 13.0 0.00 0.00 0.00 68 1013.5
20180618004215 59 245 8.0 14.0 0.00 0.00 0.00 67 1013.5
20180618003717 59 224 4.0 14.0 0.00 0.00 0.00 68 1013.5
20180618003215 59 227 4.0 12.0 0.00 0.00 0.00 67 1013.5
20180618002715 60 218 5.0 12.0 0.00 0.00 0.00 67 1013.6
20180618002215 59 205 8.0 15.0 0.00 0.00 0.00 67 1013.5
20180618001714 59 214 11.0 15.0 0.00 0.00 0.00 66 1013.4
20180618001215 60 285 4.0 14.0 0.00 0.00 0.00 66 1013.6
20180618000715 60 270 6.0 13.0 0.00 0.00 0.00 66 1013.7
20180618000215 60 224 13.0 13.0 0.00 0.00 0.00 65 1013.7
20180617235716 61 215 10.0 14.0 0.00 0.00 0.00 63 1013.9
20180617235215 61 209 2.0 14.0 0.00 0.00 0.00 63 1014.0
20180617234714 61 214 9.0 12.0 0.00 0.00 0.00 62 1013.9
20180617234214 61 233 6.0 11.0 0.00 0.00 0.00 62 1013.9
20180617233714 61 223 2.0 11.0 0.00 0.00 0.00 63 1014.0
20180617233215 61 236 7.0 13.0 0.00 0.00 0.00 63 1013.9
20180617232713 61 243 3.0 13.0 0.00 0.00 0.00 62 1013.9
20180617232213 62 233 5.0 13.0 0.00 0.00 0.00 61 1013.9
20180617231713 62 276 8.0 13.0 0.00 0.00 0.00 61 1014.0
20180617231212 62 219 5.0 13.0 0.00 0.00 0.00 59 1013.9
20180617230713 62 255 8.0 14.0 0.00 0.00 0.00 60 1014.0
20180617230213 62 229 5.0 14.0 0.00 0.00 0.00 59 1013.9
20180617225712 63 238 6.0 13.0 0.00 0.00 0.00 57 1014.0
20180617225213 63 257 8.0 13.0 0.00 0.00 0.00 58 1014.0
20180617224713 63 210 5.0 13.0 0.00 0.00 0.00 57 1014.0
20180617224212 63 274 6.0 15.0 0.00 0.00 0.00 57 1014.0
20180617223713 63 228 13.0 15.0 0.00 0.00 0.00 58 1014.0
20180617223212 63 236 12.0 13.0 0.00 0.00 0.00 56 1014.0
20180617222713 63 259 6.0 12.0 0.00 0.00 0.00 56 1014.0
20180617222212 63 236 4.0 15.0 0.00 0.00 0.00 55 1014.0
20180617221712 62 257 3.0 15.0 0.00 0.00 0.00 57 1013.8
20180617221211 63 247 3.0 13.0 0.00 0.00 0.00 56 1014.0
20180617220711 62 231 7.0 14.0 0.00 0.00 0.00 57 1013.7
20180617220213 62 284 10.0 15.0 0.00 0.00 0.00 56 1013.7
20180617215711 62 214 10.0 15.0 0.00 0.00 0.00 56 1014.0
20180617215211 63 218 10.0 14.0 0.00 0.00 0.00 55 1014.1
20180617214713 63 207 7.0 14.0 0.00 0.00 0.00 55 1014.1
20180617214210 63 250 11.0 13.0 0.00 0.00 0.00 56 1014.1
20180617213710 62 179 4.0 15.0 0.00 0.00 0.00 56 1013.9
20180617213209 63 226 6.0 15.0 0.00 0.00 0.00 54 1013.9
20180617212712 62 237 9.0 14.0 0.00 0.00 0.00 56 1014.0
20180617212209 62 213 12.0 13.0 0.00 0.00 0.00 55 1014.0
20180617211709 63 251 8.0 13.0 0.00 0.00 0.00 55 1013.9
20180617211209 63 218 10.0 13.0 0.00 0.00 0.00 55 1014.0
20180617210710 62 177 9.0 13.0 0.00 0.00 0.00 56 1014.0
20180617210211 62 248 11.0 12.0 0.00 0.00 0.00 55 1014.1
20180617205711 62 197 8.0 15.0 0.00 0.00 0.00 57 1014.1
20180617205210 62 225 10.0 15.0 0.00 0.00 0.00 57 1014.0
20180617204710 61 216 5.0 13.0 0.00 0.00 0.00 57 1014.1
20180617204210 61 283 9.0 13.0 0.00 0.00 0.00 57 1014.2
20180617203709 61 253 6.0 16.0 0.00 0.00 0.00 58 1014.0
20180617203209 61 256 13.0 17.0 0.00 0.00 0.00 58 1014.0
20180617202709 61 257 6.0 17.0 0.00 0.00 0.00 58 1013.8
20180617202208 60 241 8.0 14.0 0.00 0.00 0.00 60 1013.6
20180617201708 60 248 10.0 14.0 0.00 0.00 0.00 60 1013.6
20180617201208 61 221 12.0 14.0 0.00 0.00 0.00 60 1013.8
20180617200709 61 237 13.0 14.0 0.00 0.00 0.00 60 1013.8
20180617200207 61 269 7.0 14.0 0.00 0.00 0.00 59 1013.9
20180617195707 60 236 4.0 14.0 0.00 0.00 0.00 60 1013.2
20180617195207 60 198 7.0 12.0 0.00 0.00 0.00 61 1013.2
20180617194708 61 239 8.0 13.0 0.00 0.00 0.00 62 1013.4
20180617194206 60 252 9.0 13.0 0.00 0.00 0.00 61 1013.2
20180617193706 60 169 7.0 12.0 0.00 0.00 0.00 63 1013.2
20180617193208 59 226 11.0 12.0 0.00 0.00 0.00 63 1013.1
20180617192706 60 201 8.0 13.0 0.00 0.00 0.00 62 1013.1
20180617192208 59 215 9.0 13.0 0.00 0.00 0.00 64 1013.1
20180617191705 59 220 7.0 12.0 0.00 0.00 0.00 62 1013.0
20180617191205 59 237 3.0 12.0 0.00 0.00 0.00 64 1013.1
20180617190707 59 234 7.0 15.0 0.00 0.00 0.00 63 1013.0
20180617190205 59 186 6.0 15.0 0.00 0.00 0.00 64 1013.0
20180617185706 59 198 6.0 13.0 0.00 0.00 0.00 64 1013.4
20180617185205 59 214 7.0 13.0 0.00 0.00 0.00 63 1013.5
20180617184705 58 222 10.0 12.0 0.00 0.00 0.00 64 1013.2
20180617184206 58 214 6.0 12.0 0.00 0.00 0.00 68 1013.2
20180617183705 58 251 9.0 13.0 0.00 0.00 0.00 67 1013.2
20180617183206 57 209 6.0 13.0 0.00 0.00 0.00 68 1013.1
20180617182705 57 209 2.0 11.0 0.00 0.00 0.00 69 1013.1
20180617182205 57 221 5.0 12.0 0.00 0.00 0.00 69 1013.2
20180617181705 56 162 6.0 12.0 0.00 0.00 0.00 71 1013.0
20180617181204 56 237 0.0 10.0 0.00 0.00 0.00 68 1013.0
20180617180705 56 232 5.0 10.0 0.00 0.00 0.00 70 1013.0
20180617180204 55 233 1.0 9.0 0.00 0.00 0.00 73 1012.9
20180617175704 54 272 3.0 7.0 0.00 0.00 0.00 75 1012.8
20180617175203 54 290 6.0 8.0 0.00 0.00 0.00 74 1012.9
20180617174704 54 282 4.0 10.0 0.00 0.00 0.00 75 1012.8
20180617174203 54 199 7.0 10.0 0.00 0.00 0.00 74 1012.8
20180617173704 55 281 5.0 8.0 0.00 0.00 0.00 73 1012.7
20180617173203 55 198 2.0 9.0 0.00 0.00 0.00 73 1012.7
20180617172703 55 241 5.0 9.0 0.00 0.00 0.00 72 1012.6
20180617172204 55 153 3.0 8.0 0.00 0.00 0.00 73 1012.6
20180617171703 55 238 5.0 9.0 0.00 0.00 0.00 72 1012.5
20180617171203 54 161 3.0 9.0 0.00 0.00 0.00 74 1012.3
20180617170703 54 261 5.0 9.0 0.00 0.00 0.00 74 1012.4
20180617170202 54 232 5.0 9.0 0.00 0.00 0.00 76 1012.4
20180617165701 53 232 3.0 9.0 0.00 0.00 0.00 76 1012.4
20180617165201 53 255 7.0 7.0 0.00 0.00 0.00 76 1012.3
20180617164701 54 238 4.0 6.0 0.00 0.00 0.00 76 1012.4
20180617164203 54 217 2.0 4.0 0.00 0.00 0.00 77 1012.4
20180617163702 53 200 2.0 6.0 0.00 0.00 0.00 80 1012.1
20180617163202 52 155 3.0 6.0 0.00 0.00 0.00 81 1012.1
20180617162701 52 244 3.0 6.0 0.00 0.00 0.00 80 1012.2
20180617162202 51 196 0.0 6.0 0.00 0.00 0.00 83 1011.9
20180617161701 51 226 6.0 6.0 0.00 0.00 0.00 82 1011.9
20180617161200 50 169 0.0 6.0 0.00 0.00 0.00 83 1011.9
20180617160701 50 216 2.0 6.0 0.00 0.00 0.00 84 1012.0
20180617160200 50 206 3.0 6.0 0.00 0.00 0.00 85 1012.1
20180617155700 50 224 4.0 6.0 0.00 0.00 0.00 85 1012.1
20180617155159 49 281 0.0 6.0 0.00 0.00 0.00 85 1012.1
20180617154700 49 255 4.0 6.0 0.00 0.00 0.00 84 1012.0
20180617154159 49 235 5.0 6.0 0.00 0.00 0.00 85 1012.0
20180617153701 49 325 1.0 3.0 0.00 0.00 0.00 86 1012.0
20180617153201 49 295 1.0 5.0 0.00 0.00 0.00 86 1011.9
20180617152659 49 260 3.0 6.0 0.00 0.00 0.00 86 1011.9
20180617152159 49 217 2.0 6.0 0.00 0.00 0.00 85 1011.9
20180617151659 49 259 0.0 8.0 0.00 0.00 0.00 86 1011.8
20180617151158 49 240 4.0 8.0 0.00 0.00 0.00 86 1011.8
20180617150659 49 238 5.0 5.0 0.00 0.00 0.00 86 1011.8
20180617150159 49 217 1.0 6.0 0.00 0.00 0.00 86 1011.6
20180617145659 49 238 4.0 6.0 0.00 0.00 0.00 86 1011.6
20180617145200 49 275 2.0 5.0 0.00 0.00 0.00 86 1011.4
20180617144659 49 271 2.0 7.0 0.00 0.00 0.00 85 1011.4
20180617144159 49 215 3.0 7.0 0.00 0.00 0.00 85 1011.4
20180617143658 49 188 2.0 4.0 0.00 0.00 0.00 86 1011.4
20180617143158 49 231 2.0 4.0 0.00 0.00 0.00 86 1011.4
20180617142657 49 281 2.0 3.0 0.00 0.00 0.00 87 1011.3
20180617142157 46 215 2.0 2.0 0.00 0.00 0.00 91 1011.0
20180617141658 46 215 2.0 2.0 0.00 0.00 0.00 91 1010.9
20180617141158 46 215 2.0 2.0 0.00 0.00 0.00 91 1010.9
20180617140658 46 215 2.0 2.0 0.00 0.00 0.00 91 1010.8
20180617140157 46 215 2.0 2.0 0.00 0.00 0.00 91 1010.8
20180617135657 46 215 2.0 2.0 0.00 0.00 0.00 91 1010.9
20180617135157 46 215 2.0 2.0 0.00 0.00 0.00 91 1010.9
20180617134657 46 215 2.0 2.0 0.00 0.00 0.00 91 1011.0
20180617134158 46 215 2.0 2.0 0.00 0.00 0.00 91 1010.9
20180617133657 46 215 2.0 2.0 0.00 0.00 0.00 91 1010.9
20180617133157 46 215 2.0 2.0 0.00 0.00 0.00 91 1010.8
20180617132655 46 215 2.0 2.0 0.00 0.00 0.00 91 1010.8
20180617132155 46 215 2.0 2.0 0.00 0.00 0.00 91 1010.8
20180617131657 46 215 2.0 2.0 0.00 0.00 0.00 91 1010.7
20180617131155 46 215 2.0 2.0 0.00 0.00 0.00 91 1010.7
20180617130656 46 215 2.0 2.0 0.00 0.00 0.00 91 1010.6
20180617130226 46 215 2.0 2.0 0.00 0.00 0.00 91 1010.6
20180617125727 46 215 2.0 2.0 0.00 0.00 0.00 91 1010.8
20180617125225 46 215 2.0 2.0 0.00 0.00 0.00 91 1010.9
20180617124725 46 215 2.0 3.0 0.00 0.00 0.00 91 1010.8
20180617124225 46 215 2.0 3.0 0.00 0.00 0.00 91 1010.5
20180617123725 47 199 2.0 2.0 0.00 0.00 0.00 91 1010.6
20180617123225 47 250 1.0 2.0 0.00 0.00 0.00 91 1010.5
20180617122724 47 246 0.0 3.0 0.00 0.00 0.00 91 1010.5
20180617122225 47 219 2.0 3.0 0.00 0.00 0.00 91 1010.4
20180617121724 47 207 0.0 3.0 0.00 0.00 0.00 91 1010.4
20180617121225 47 271 0.0 3.0 0.00 0.00 0.00 91 1010.3
20180617120724 47 236 2.0 3.0 0.00 0.00 0.00 91 1010.3
20180617120224 47 211 1.0 2.0 0.00 0.00 0.00 91 1010.3
20180617115725 47 215 1.0 1.0 0.00 0.00 0.00 92 1010.7
20180617115224 47 255 0.0 1.0 0.00 0.00 0.00 92 1010.7
20180617114724 47 252 1.0 1.0 0.00 0.00 0.00 92 1010.7
20180617114223 47 252 0.0 0.0 0.00 0.00 0.00 92 1010.6
20180617113724 47 252 0.0 1.0 0.00 0.00 0.00 92 1010.5
20180617113223 47 251 0.0 1.0 0.00 0.00 0.00 92 1010.6
20180617112723 47 248 0.0 1.0 0.00 0.00 0.00 92 1010.5
20180617112223 47 141 0.0 1.0 0.00 0.00 0.00 92 1010.4
20180617111725 47 123 0.0 2.0 0.00 0.00 0.00 92 1010.5
20180617111224 48 123 0.0 2.0 0.00 0.00 0.00 92 1010.5
20180617110724 48 229 0.0 4.0 0.00 0.00 0.00 92 1010.7
20180617110224 48 234 2.0 4.0 0.00 0.00 0.00 92 1010.7
20180617105725 48 246 2.0 3.0 0.00 0.00 0.00 92 1011.2
20180617105223 48 271 0.0 2.0 0.00 0.00 0.00 91 1011.1
20180617104722 48 192 2.0 3.0 0.00 0.00 0.00 91 1011.1
20180617104224 48 209 1.0 3.0 0.00 0.00 0.00 91 1011.0
20180617103721 48 219 2.0 3.0 0.00 0.00 0.00 91 1010.8
20180617103220 48 213 0.0 2.0 0.00 0.00 0.00 91 1010.8
20180617102723 48 212 0.0 3.0 0.00 0.00 0.00 91 1010.8
20180617102222 48 226 0.0 3.0 0.00 0.00 0.00 91 1010.9
20180617101721 48 214 2.0 3.0 0.00 0.00 0.00 90 1010.9
20180617101221 48 162 0.0 1.0 0.00 0.00 0.00 90 1010.8
20180617100721 48 233 0.0 1.0 0.00 0.00 0.00 90 1010.8
20180617100221 48 233 0.0 1.0 0.00 0.00 0.00 90 1010.7
20180617095719 49 233 0.0 2.0 0.00 0.00 0.00 90 1011.0
20180617095220 49 248 1.0 2.0 0.00 0.00 0.00 90 1011.0
20180617094720 49 200 1.0 4.0 0.00 0.00 0.00 90 1011.0
20180617094221 49 228 2.0 4.0 0.00 0.00 0.00 89 1011.1
20180617093719 49 192 1.0 4.0 0.00 0.00 0.00 89 1011.1
20180617093219 49 254 0.0 4.0 0.00 0.00 0.00 89 1011.1
20180617092719 49 260 3.0 4.0 0.00 0.00 0.00 88 1011.1
20180617092219 49 226 2.0 2.0 0.00 0.00 0.00 87 1011.1
20180617091727 49 89 1.0 2.0 0.00 0.00 0.00 87 1011.1
20180617091220 49 195 0.0 2.0 0.00 0.00 0.00 88 1011.1
20180617090719 49 99 0.0 2.0 0.00 0.00 0.00 88 1011.0
20180617090219 49 97 0.0 1.0 0.00 0.00 0.00 88 1011.0
20180617085718 49 74 0.0 0.0 0.00 0.00 0.00 88 1011.1
20180617085219 48 73 0.0 2.0 0.00 0.00 0.00 88 1011.0
20180617084719 48 73 0.0 2.0 0.00 0.00 0.00 88 1011.1
20180617084219 47 51 1.0 2.0 0.00 0.00 0.00 87 1011.0
20180617083719 47 34 0.0 1.0 0.00 0.00 0.00 88 1011.0
20180617083217 47 33 0.0 2.0 0.00 0.00 0.00 88 1011.0
20180617082719 46 33 0.0 3.0 0.00 0.00 0.00 88 1010.8
20180617082218 46 31 2.0 3.0 0.00 0.00 0.00 88 1010.7
20180617081718 46 49 2.0 3.0 0.00 0.00 0.00 88 1010.7
20180617081217 45 43 2.0 4.0 0.00 0.00 0.00 88 1010.6
20180617080716 45 34 2.0 5.0 0.00 0.00 0.00 88 1010.6
20180617080217 45 50 5.0 5.0 0.00 0.00 0.00 88 1010.5
20180617075719 45 52 2.0 5.0 0.00 0.00 0.00 88 1010.5
20180617075216 45 32 3.0 4.0 0.00 0.00 0.00 88 1010.4
20180617074716 46 36 3.0 3.0 0.00 0.00 0.00 88 1010.6
20180617074216 46 40 2.0 3.0 0.00 0.00 0.00 88 1010.5
20180617073718 46 37 1.0 3.0 0.00 0.00 0.00 88 1010.4
20180617073217 47 38 2.0 3.0 0.00 0.00 0.00 88 1010.4
20180617072715 47 53 2.0 3.0 0.00 0.00 0.00 88 1010.4
20180617072216 47 79 1.0 3.0 0.00 0.00 0.00 88 1010.4
20180617071718 48 46 2.0 3.0 0.00 0.00 0.00 87 1010.7
20180617071216 48 56 1.0 2.0 0.00 0.00 0.00 87 1010.8
20180617070716 49 37 2.0 3.0 0.00 0.00 0.00 88 1010.8
20180617070216 49 55 0.0 4.0 0.00 0.00 0.00 88 1010.8
20180617065716 49 51 2.0 4.0 0.00 0.00 0.00 88 1010.8
20180617065216 49 25 3.0 4.0 0.00 0.00 0.00 88 1010.8
20180617064715 50 57 1.0 4.0 0.00 0.00 0.00 88 1010.8
20180617064217 50 19 2.0 4.0 0.00 0.00 0.00 88 1010.9
20180617063716 50 29 3.0 4.0 0.00 0.00 0.00 88 1010.9
20180617063217 50 57 0.0 3.0 0.00 0.00 0.00 88 1010.9
20180617062716 50 63 2.0 3.0 0.00 0.00 0.00 88 1010.9
20180617062216 50 44 1.0 2.0 0.00 0.00 0.00 88 1010.9
20180617061715 49 71 1.0 2.0 0.00 0.00 0.00 88 1011.0
20180617061215 49 61 1.0 2.0 0.00 0.00 0.00 88 1010.9
20180617060714 49 60 1.0 3.0 0.00 0.00 0.00 87 1010.9
20180617060213 48 67 2.0 3.0 0.00 0.00 0.00 88 1010.7
20180617055713 48 58 1.0 4.0 0.00 0.00 0.00 87 1010.9
20180617055214 47 41 2.0 4.0 0.00 0.00 0.00 87 1010.9
20180617054714 47 29 3.0 4.0 0.00 0.00 0.00 87 1010.9
20180617054213 47 36 3.0 5.0 0.00 0.00 0.00 87 1010.8
20180617053713 47 28 4.0 5.0 0.00 0.00 0.00 88 1010.8
20180617053213 47 45 3.0 5.0 0.00 0.00 0.00 87 1010.8
20180617052714 47 37 4.0 4.0 0.00 0.00 0.00 87 1010.7
20180617052212 47 29 3.0 4.0 0.00 0.00 0.00 88 1010.8
20180617051713 48 42 3.0 4.0 0.00 0.00 0.00 87 1010.7
20180617051211 48 27 3.0 4.0 0.00 0.00 0.00 87 1010.7
20180617050713 49 53 2.0 4.0 0.00 0.00 0.00 87 1010.8
20180617050212 50 236 1.0 1.0 0.00 0.00 0.00 88 1011.0
20180617045713 50 227 1.0 1.0 0.00 0.00 0.00 88 1010.7
20180617045212 50 168 0.0 0.0 0.00 0.00 0.00 88 1010.6
20180617044712 50 168 0.0 0.0 0.00 0.00 0.00 88 1010.5
20180617044211 50 168 0.0 0.0 0.00 0.00 0.00 88 1010.5
20180617043712 51 168 0.0 2.0 0.00 0.00 0.00 88 1010.7
20180617043211 51 168 0.0 2.0 0.00 0.00 0.00 88 1010.7
20180617042710 51 218 0.0 1.0 0.00 0.00 0.00 88 1010.7
20180617042212 51 219 1.0 3.0 0.00 0.00 0.00 88 1010.7
20180617041711 51 226 1.0 3.0 0.00 0.00 0.00 87 1010.5
20180617041211 51 240 2.0 2.0 0.00 0.00 0.00 88 1010.4
20180617040711 51 202 0.0 2.0 0.00 0.00 0.00 88 1010.3
20180617040210 51 230 0.0 3.0 0.00 0.00 0.00 88 1010.3
20180617035711 51 206 2.0 3.0 0.00 0.00 0.00 88 1009.4
20180617035210 51 188 0.0 2.0 0.00 0.00 0.00 88 1009.4
20180617034709 51 249 1.0 3.0 0.00 0.00 0.00 88 1009.4
20180617034210 51 160 0.0 5.0 0.00 0.00 0.00 88 1009.5
20180617033709 51 219 2.0 5.0 0.00 0.00 0.00 88 1009.4